QPF
0.01 0.02 0.02 0.03 0.01 0.01 0.00 0.00 0.00 0.01 0.01 0.00 0.00 0.00 0.00 0.00 0.00 0.00 0.00 0.00 0.00 0.00 0.00 0.00 0.00 0.00 0.00 0.00 0.00 0.00 0.00 0.00 0.00 0.00 0.00 0.00 0.00 0.00 0.00 0.00 0.00 0.00 0.00 0.01
0.00 0.01 0.01 0.01 0.00 0.00 0.00 0.00 0.00 0.00 0.00 0.00 0.00 0.00 0.00 0.00 0.00 0.00 0.00 0.00 0.00 0.00 0.00 0.00 0.00 0.00 0.00 0.00 0.00 0.00 0.00 0.00 0.00 0.00 0.00 0.00 0.00 0.00 0.00 0.00 0.01 0.01 0.01 0.01
0.01 0.01 0.01 0.00 0.00 0.00 0.00 0.00 0.00 0.00 0.00 0.00 0.00 0.00 0.00 0.00 0.00 0.00 0.00 0.00 0.00 0.00 0.00 0.00 0.00 0.00 0.00 0.00 0.00 0.00 0.00 0.00 0.00 0.00 0.00 0.00 0.00 0.00 0.00 0.01 0.01 0.01 0.01 0.01
0.02 0.02 0.01 0.02 0.01 0.00 0.00 0.00 0.00 0.00 0.00 0.00 0.00 0.00 0.00 0.00 0.00 0.00 0.00 0.00 0.00 0.00 0.00 0.00 0.00 0.00 0.00 0.00 0.00 0.00 0.00 0.00 0.00 0.00 0.00 0.00 0.01 0.01 0.01 0.01 0.01 0.01 0.01 0.01
0.01 0.02 0.01 0.01 0.01 0.01 0.00 0.00 0.00 0.00 0.00 0.00 0.00 0.00 0.00 0.00 0.00 0.00 0.00 0.00 0.00 0.00 0.00 0.00 0.00 0.00 0.00 0.00 0.00 0.00 0.00 0.00 0.00 0.00 0.00 0.00 0.01 0.01 0.01 0.01 0.01 0.01 0.01 0.01
0.00 0.02 0.03 0.03 0.03 0.01 0.01 0.01 0.00 0.00 0.00 0.00 0.00 0.00 0.00 0.01 0.00 0.00 0.01 0.01 0.00 0.00 0.00 0.00 0.00 0.00 0.00 0.00 0.00 0.00 0.00 0.00 0.00 0.00 0.00 0.00 0.01 0.01 0.01 0.01 0.01 0.01 0.01 0.01
0.01 0.02 0.03 0.05 0.06 0.03 0.04 0.03 0.00 0.00 0.00 0.00 0.00 0.00 0.00 0.01 0.00 0.00 0.00 0.00 0.00 0.00 0.00 0.00 0.00 0.00 0.00 0.00 0.00 0.00 0.00 0.00 0.00 0.00 0.00 0.00 0.01 0.01 0.01 0.01 0.01 0.01 0.01 0.02
0.03 0.05 0.06 0.05 0.04 0.07 0.07 0.03 0.01 0.01 0.01 0.00 0.00 0.00 0.00 0.00 0.00 0.00 0.00 0.00 0.00 0.00 0.00 0.00 0.00 0.00 0.00 0.00 0.00 0.00 0.00 0.00 0.00 0.00 0.00 0.00 0.00 0.01 0.01 0.02 0.02 0.02 0.03 0.02
0.07 0.10 0.07 0.05 0.04 0.05 0.04 0.01 0.01 0.01 0.01 0.01 0.00 0.00 0.00 0.00 0.00 0.00 0.00 0.00 0.00 0.00 0.00 0.00 0.00 0.00 0.00 0.00 0.00 0.00 0.00 0.00 0.00 0.00 0.00 0.00 0.01 0.01 0.01 0.02 0.01 0.01 0.01 0.01
0.08 0.07 0.09 0.05 0.03 0.02 0.01 0.00 0.00 0.00 0.00 0.00 0.00 0.00 0.00 0.00 0.00 0.00 0.00 0.00 0.00 0.00 0.00 0.00 0.00 0.00 0.00 0.00 0.00 0.00 0.00 0.00 0.00 0.00 0.00 0.00 0.01 0.01 0.01 0.00 0.01 0.01 0.01 0.01
0.11 0.07 0.05 0.03 0.03 0.02 0.00 0.00 0.00 0.00 0.00 0.00 0.00 0.00 0.00 0.00 0.00 0.00 0.00 0.00 0.00 0.00 0.00 0.00 0.00 0.00 0.00 0.00 0.00 0.00 0.00 0.00 0.00 0.00 0.00 0.01 0.01 0.01 0.00 0.00 0.00 0.00 0.00 0.00
0.10 0.07 0.10 0.06 0.02 0.01 0.01 0.00 0.00 0.00 0.00 0.00 0.00 0.00 0.00 0.00 0.00 0.00 0.00 0.00 0.00 0.00 0.00 0.00 0.00 0.00 0.00 0.00 0.00 0.00 0.00 0.00 0.00 0.00 0.00 0.00 0.00 0.00 0.00 0.00 0.00 0.00 0.00 0.00
0.03 0.02 0.04 0.03 0.01 0.00 0.00 0.00 0.00 0.00 0.00 0.00 0.00 0.00 0.00 0.00 0.01 0.00 0.00 0.00 0.00 0.00 0.00 0.00 0.00 0.00 0.00 0.00 0.00 0.00 0.00 0.00 0.00 0.00 0.00 0.00 0.00 0.01 0.01 0.01 0.01 0.01 0.01 0.00
0.03 0.01 0.00 0.00 0.00 0.00 0.00 0.00 0.00 0.00 0.00 0.00 0.00 0.00 0.00 0.00 0.00 0.00 0.00 0.00 0.00 0.00 0.00 0.00 0.00 0.00 0.00 0.00 0.00 0.00 0.00 0.00 0.00 0.00 0.00 0.00 0.00 0.01 0.01 0.01 0.02 0.03 0.03 0.02
0.01 0.00 0.00 0.00 0.00 0.00 0.00 0.00 0.00 0.00 0.00 0.00 0.00 0.00 0.00 0.00 0.00 0.00 0.00 0.00 0.00 0.00 0.00 0.00 0.00 0.00 0.00 0.00 0.01 0.01 0.00 0.00 0.00 0.00 0.00 0.00 0.00 0.01 0.01 0.01 0.02 0.03 0.03 0.03
0.01 0.00 0.00 0.00 0.00 0.00 0.00 0.00 0.00 0.00 0.00 0.01 0.01 0.00 0.00 0.00 0.00 0.00 0.00 0.00 0.00 0.00 0.00 0.00 0.00 0.00 0.00 0.00 0.01 0.01 0.01 0.01 0.01 0.00 0.00 0.00 0.01 0.01 0.01 0.02 0.03 0.04 0.04 0.03
0.00 0.00 0.00 0.00 0.00 0.00 0.00 0.00 0.00 0.00 0.00 0.00 0.01 0.00 0.01 0.00 0.00 0.01 0.00 0.00 0.00 0.00 0.00 0.00 0.00 0.00 0.00 0.01 0.01 0.01 0.01 0.01 0.01 0.00 0.00 0.01 0.01 0.01 0.01 0.02 0.03 0.04 0.04 0.04
0.01 0.00 0.00 0.00 0.00 0.00 0.00 0.00 0.00 0.00 0.00 0.00 0.00 0.00 0.00 0.00 0.00 0.00 0.00 0.00 0.00 0.00 0.00 0.00 0.00 0.00 0.00 0.01 0.02 0.02 0.02 0.01 0.00 0.01 0.01 0.01 0.01 0.01 0.02 0.02 0.03 0.04 0.04 0.03
0.01 0.00 0.00 0.00 0.00 0.00 0.00 0.00 0.00 0.00 0.00 0.00 0.00 0.00 0.00 0.00 0.00 0.00 0.00 0.00 0.01 0.01 0.01 0.01 0.01 0.00 0.01 0.02 0.01 0.02 0.01 0.01 0.01 0.01 0.01 0.02 0.02 0.02 0.02 0.03 0.03 0.04 0.03 0.02
0.00 0.00 0.00 0.00 0.00 0.00 0.00 0.00 0.00 0.00 0.00 0.00 0.00 0.00 0.00 0.00 0.00 0.00 0.00 0.00 0.01 0.01 0.01 0.01 0.01 0.01 0.01 0.01 0.01 0.00 0.00 0.00 0.01 0.01 0.01 0.01 0.02 0.02 0.02 0.03 0.03 0.04 0.03 0.02
0.00 0.00 0.00 0.00 0.00 0.00 0.00 0.00 0.00 0.00 0.00 0.00 0.00 0.00 0.00 0.00 0.00 0.00 0.00 0.00 0.01 0.00 0.00 0.00 0.00 0.00 0.00 0.00 0.00 0.00 0.00 0.00 0.01 0.01 0.02 0.02 0.02 0.03 0.04 0.03 0.04 0.06 0.04 0.03
0.00 0.00 0.00 0.00 0.00 0.00 0.00 0.00 0.00 0.00 0.00 0.00 0.00 0.00 0.00 0.00 0.00 0.00 0.00 0.00 0.00 0.00 0.00 0.00 0.00 0.00 0.00 0.00 0.00 0.00 0.00 0.00 0.01 0.01 0.02 0.03 0.04 0.05 0.05 0.04 0.04 0.05 0.05 0.05
0.00 0.00 0.00 0.00 0.00 0.00 0.00 0.00 0.00 0.00 0.00 0.00 0.00 0.00 0.00 0.00 0.00 0.00 0.00 0.00 0.00 0.00 0.00 0.00 0.00 0.00 0.00 0.00 0.00 0.00 0.00 0.01 0.01 0.02 0.03 0.03 0.05 0.05 0.05 0.04 0.03 0.04 0.04 0.04
0.00 0.00 0.00 0.00 0.00 0.00 0.00 0.00 0.00 0.00 0.00 0.00 0.00 0.00 0.00 0.00 0.00 0.00 0.00 0.00 0.00 0.00 0.00 0.00 0.00 0.00 0.00 0.00 0.00 0.01 0.01 0.02 0.03 0.04 0.04 0.05 0.05 0.04 0.04 0.04 0.03 0.03 0.04 0.04
0.00 0.00 0.00 0.00 0.00 0.00 0.00 0.00 0.00 0.00 0.00 0.00 0.00 0.00 0.00 0.00 0.00 0.00 0.00 0.00 0.00 0.00 0.00 0.00 0.00 0.00 0.00 0.01 0.01 0.02 0.03 0.03 0.03 0.04 0.05 0.05 0.05 0.05 0.06 0.05 0.05 0.04 0.04 0.03
0.00 0.00 0.00 0.00 0.00 0.00 0.00 0.00 0.00 0.00 0.00 0.00 0.00 0.00 0.00 0.00 0.00 0.00 0.00 0.00 0.00 0.00 0.00 0.01 0.01 0.01 0.01 0.02 0.03 0.03 0.03 0.03 0.04 0.04 0.04 0.05 0.05 0.06 0.05 0.04 0.03 0.04 0.03 0.02
0.00 0.00 0.00 0.00 0.00 0.00 0.00 0.00 0.00 0.00 0.00 0.00 0.00 0.00 0.00 0.00 0.00 0.00 0.00 0.00 0.01 0.01 0.01 0.01 0.01 0.01 0.01 0.02 0.03 0.03 0.04 0.04 0.04 0.04 0.04 0.04 0.04 0.05 0.04 0.02 0.02 0.03 0.02 0.01
MSLP
1008.49 1008.30 1008.14 1008.02 1007.95 1007.92 1007.90 1007.86 1007.78 1007.65 1007.45 1007.23 1007.00 1006.83 1006.74 1006.77 1006.95 1007.27 1007.72 1008.27 1008.88 1009.50 1010.10 1010.65 1011.13 1011.54 1011.88 1012.17 1012.41 1012.62 1012.81 1012.98 1013.13 1013.24 1013.32 1013.37 1013.38 1013.36 1013.31 1013.24 1013.15 1013.06 1012.97 1012.87
1008.30 1008.11 1007.90 1007.70 1007.51 1007.35 1007.19 1007.04 1006.88 1006.71 1006.54 1006.38 1006.25 1006.19 1006.23 1006.37 1006.65 1007.03 1007.52 1008.08 1008.68 1009.28 1009.85 1010.37 1010.83 1011.23 1011.56 1011.85 1012.10 1012.32 1012.52 1012.70 1012.85 1012.97 1013.05 1013.10 1013.11 1013.09 1013.03 1012.95 1012.85 1012.73 1012.61 1012.47
1008.16 1008.02 1007.82 1007.59 1007.34 1007.08 1006.81 1006.56 1006.31 1006.08 1005.88 1005.73 1005.65 1005.66 1005.78 1006.00 1006.34 1006.77 1007.28 1007.84 1008.43 1009.00 1009.54 1010.03 1010.47 1010.85 1011.19 1011.48 1011.74 1011.97 1012.18 1012.37 1012.52 1012.65 1012.74 1012.79 1012.80 1012.77 1012.70 1012.61 1012.49 1012.35 1012.19 1012.02
1008.16 1008.11 1007.97 1007.75 1007.47 1007.15 1006.80 1006.44 1006.09 1005.77 1005.50 1005.32 1005.23 1005.25 1005.40 1005.66 1006.02 1006.48 1007.00 1007.56 1008.13 1008.68 1009.19 1009.67 1010.09 1010.47 1010.80 1011.10 1011.37 1011.61 1011.83 1012.03 1012.19 1012.31 1012.40 1012.44 1012.44 1012.40 1012.32 1012.21 1012.07 1011.91 1011.72 1011.53
1008.30 1008.35 1008.29 1008.12 1007.85 1007.49 1007.07 1006.61 1006.15 1005.72 1005.36 1005.10 1004.95 1004.94 1005.07 1005.32 1005.69 1006.15 1006.67 1007.23 1007.78 1008.32 1008.83 1009.30 1009.72 1010.10 1010.45 1010.76 1011.04 1011.30 1011.52 1011.71 1011.87 1011.98 1012.05 1012.07 1012.04 1011.98 1011.88 1011.75 1011.59 1011.41 1011.22 1011.01
1008.51 1008.66 1008.69 1008.58 1008.33 1007.96 1007.48 1006.94 1006.37 1005.83 1005.36 1004.99 1004.76 1004.69 1004.76 1004.99 1005.34 1005.78 1006.30 1006.85 1007.40 1007.94 1008.46 1008.93 1009.37 1009.77 1010.14 1010.47 1010.77 1011.04 1011.27 1011.45 1011.59 1011.68 1011.71 1011.69 1011.62 1011.52 1011.39 1011.24 1011.07 1010.88 1010.69 1010.49
1008.68 1008.92 1009.03 1008.98 1008.76 1008.38 1007.87 1007.26 1006.62 1005.98 1005.40 1004.93 1004.61 1004.45 1004.47 1004.64 1004.96 1005.38 1005.88 1006.42 1006.98 1007.53 1008.06 1008.57 1009.03 1009.47 1009.87 1010.24 1010.56 1010.84 1011.07 1011.24 1011.35 1011.39 1011.37 1011.30 1011.18 1011.04 1010.87 1010.69 1010.51 1010.34 1010.16 1009.99
1008.71 1009.01 1009.18 1009.18 1009.00 1008.63 1008.12 1007.48 1006.78 1006.07 1005.42 1004.87 1004.47 1004.24 1004.20 1004.32 1004.58 1004.97 1005.45 1005.98 1006.54 1007.10 1007.65 1008.18 1008.68 1009.16 1009.60 1010.00 1010.35 1010.65 1010.88 1011.03 1011.11 1011.10 1011.03 1010.89 1010.71 1010.51 1010.31 1010.11 1009.93 1009.77 1009.63 1009.51
1008.55 1008.88 1009.09 1009.13 1009.00 1008.67 1008.17 1007.54 1006.83 1006.10 1005.42 1004.83 1004.38 1004.10 1004.00 1004.06 1004.28 1004.62 1005.06 1005.56 1006.10 1006.65 1007.21 1007.76 1008.29 1008.80 1009.28 1009.72 1010.10 1010.41 1010.64 1010.78 1010.82 1010.77 1010.63 1010.43 1010.19 1009.94 1009.70 1009.48 1009.31 1009.18 1009.09 1009.03
1008.23 1008.57 1008.80 1008.88 1008.79 1008.51 1008.07 1007.49 1006.82 1006.12 1005.45 1004.87 1004.41 1004.10 1003.95 1003.97 1004.13 1004.41 1004.78 1005.23 1005.72 1006.24 1006.77 1007.32 1007.85 1008.38 1008.88 1009.34 1009.75 1010.07 1010.30 1010.42 1010.43 1010.34 1010.15 1009.90 1009.61 1009.31 1009.04 1008.81 1008.65 1008.55 1008.52 1008.53
1007.85 1008.18 1008.42 1008.54 1008.49 1008.29 1007.92 1007.43 1006.85 1006.23 1005.62 1005.08 1004.64 1004.33 1004.16 1004.13 1004.22 1004.42 1004.71 1005.06 1005.47 1005.91 1006.39 1006.88 1007.39 1007.90 1008.40 1008.86 1009.27 1009.59 1009.82 1009.93 1009.92 1009.80 1009.57 1009.28 1008.95 1008.63 1008.34 1008.11 1007.96 1007.90 1007.91 1007.99
1007.54 1007.85 1008.10 1008.25 1008.26 1008.13 1007.87 1007.49 1007.03 1006.52 1006.02 1005.55 1005.17 1004.87 1004.69 1004.61 1004.62 1004.72 1004.89 1005.13 1005.41 1005.74 1006.11 1006.51 1006.95 1007.40 1007.86 1008.29 1008.68 1009.00 1009.21 1009.31 1009.29 1009.14 1008.90 1008.59 1008.24 1007.90 1007.61 1007.39 1007.25 1007.22 1007.27 1007.39
1007.43 1007.72 1007.97 1008.13 1008.20 1008.16 1008.00 1007.75 1007.42 1007.05 1006.66 1006.30 1005.97 1005.71 1005.52 1005.39 1005.33 1005.32 1005.36 1005.44 1005.57 1005.75 1005.98 1006.25 1006.58 1006.94 1007.32 1007.70 1008.05 1008.33 1008.53 1008.61 1008.58 1008.43 1008.19 1007.87 1007.53 1007.19 1006.90 1006.68 1006.56 1006.54 1006.62 1006.76
1007.56 1007.84 1008.08 1008.27 1008.38 1008.41 1008.35 1008.22 1008.02 1007.78 1007.52 1007.25 1007.00 1006.78 1006.58 1006.41 1006.27 1006.15 1006.05 1005.98 1005.94 1005.95 1006.02 1006.14 1006.33 1006.57 1006.85 1007.14 1007.43 1007.66 1007.83 1007.90 1007.86 1007.71 1007.48 1007.17 1006.84 1006.52 1006.24 1006.03 1005.92 1005.90 1005.97 1006.10
1007.94 1008.19 1008.42 1008.62 1008.76 1008.85 1008.87 1008.83 1008.75 1008.62 1008.47 1008.29 1008.11 1007.92 1007.73 1007.52 1007.31 1007.09 1006.87 1006.66 1006.47 1006.31 1006.21 1006.18 1006.22 1006.32 1006.48 1006.68 1006.88 1007.06 1007.18 1007.23 1007.18 1007.04 1006.82 1006.54 1006.23 1005.92 1005.66 1005.46 1005.34 1005.31 1005.36 1005.46
1008.48 1008.71 1008.92 1009.11 1009.26 1009.37 1009.45 1009.48 1009.47 1009.43 1009.36 1009.26 1009.14 1008.98 1008.79 1008.57 1008.31 1008.02 1007.70 1007.37 1007.05 1006.76 1006.51 1006.34 1006.23 1006.21 1006.25 1006.34 1006.45 1006.56 1006.63 1006.65 1006.59 1006.45 1006.24 1005.98 1005.69 1005.41 1005.16 1004.96 1004.83 1004.78 1004.79 1004.85
1009.08 1009.28 1009.46 1009.62 1009.76 1009.87 1009.96 1010.02 1010.05 1010.07 1010.05 1010.00 1009.92 1009.80 1009.62 1009.39 1009.11 1008.77 1008.40 1007.99 1007.58 1007.19 1006.84 1006.55 1006.33 1006.19 1006.12 1006.11 1006.14 1006.17 1006.18 1006.16 1006.08 1005.93 1005.73 1005.49 1005.22 1004.96 1004.71 1004.52 1004.38 1004.29 1004.27 1004.27
1009.63 1009.79 1009.93 1010.04 1010.15 1010.23 1010.30 1010.36 1010.41 1010.43 1010.44 1010.43 1010.37 1010.27 1010.11 1009.89 1009.60 1009.26 1008.86 1008.42 1007.97 1007.53 1007.11 1006.75 1006.45 1006.22 1006.06 1005.96 1005.90 1005.85 1005.80 1005.73 1005.62 1005.46 1005.26 1005.02 1004.77 1004.52 1004.28 1004.08 1003.93 1003.82 1003.76 1003.73
1010.07 1010.18 1010.26 1010.33 1010.37 1010.41 1010.44 1010.47 1010.49 1010.51 1010.51 1010.50 1010.45 1010.36 1010.22 1010.01 1009.75 1009.42 1009.03 1008.61 1008.15 1007.70 1007.27 1006.87 1006.52 1006.23 1006.00 1005.82 1005.68 1005.56 1005.44 1005.31 1005.16 1004.97 1004.76 1004.52 1004.28 1004.03 1003.81 1003.61 1003.45 1003.34 1003.25 1003.19
1010.37 1010.43 1010.46 1010.46 1010.44 1010.42 1010.40 1010.38 1010.36 1010.34 1010.32 1010.29 1010.23 1010.15 1010.01 1009.83 1009.59 1009.29 1008.94 1008.54 1008.12 1007.69 1007.26 1006.86 1006.49 1006.17 1005.89 1005.64 1005.43 1005.24 1005.06 1004.86 1004.66 1004.44 1004.20 1003.95 1003.71 1003.47 1003.26 1003.07 1002.92 1002.81 1002.73 1002.67
1010.54 1010.55 1010.53 1010.48 1010.41 1010.33 1010.25 1010.17 1010.10 1010.04 1009.98 1009.91 1009.84 1009.74 1009.60 1009.43 1009.21 1008.94 1008.63 1008.28 1007.91 1007.51 1007.12 1006.73 1006.36 1006.02 1005.70 1005.41 1005.13 1004.87 1004.62 1004.36 1004.10 1003.84 1003.57 1003.31 1003.06 1002.83 1002.63 1002.47 1002.34 1002.25 1002.20 1002.16
1010.61 1010.59 1010.52 1010.43 1010.31 1010.18 1010.06 1009.93 1009.81 1009.70 1009.60 1009.49 1009.38 1009.25 1009.11 1008.93 1008.72 1008.48 1008.20 1007.90 1007.56 1007.21 1006.85 1006.49 1006.13 1005.78 1005.44 1005.11 1004.79 1004.47 1004.15 1003.83 1003.51 1003.20 1002.91 1002.63 1002.38 1002.16 1001.98 1001.85 1001.75 1001.70 1001.69 1001.70
1010.61 1010.55 1010.46 1010.34 1010.20 1010.04 1009.88 1009.72 1009.56 1009.41 1009.26 1009.10 1008.95 1008.79 1008.62 1008.43 1008.22 1007.99 1007.73 1007.46 1007.16 1006.85 1006.53 1006.19 1005.85 1005.50 1005.15 1004.79 1004.43 1004.06 1003.69 1003.32 1002.95 1002.60 1002.28 1001.98 1001.73 1001.52 1001.37 1001.27 1001.22 1001.22 1001.26 1001.32
1010.52 1010.45 1010.36 1010.23 1010.08 1009.92 1009.75 1009.56 1009.38 1009.19 1008.99 1008.80 1008.60 1008.40 1008.19 1007.97 1007.75 1007.52 1007.28 1007.02 1006.76 1006.48 1006.19 1005.88 1005.56 1005.22 1004.87 1004.50 1004.11 1003.71 1003.30 1002.89 1002.49 1002.11 1001.77 1001.46 1001.21 1001.02 1000.90 1000.84 1000.83 1000.88 1000.98 1001.10
1010.35 1010.29 1010.20 1010.09 1009.95 1009.80 1009.63 1009.44 1009.23 1009.02 1008.79 1008.56 1008.32 1008.08 1007.84 1007.59 1007.35 1007.11 1006.87 1006.63 1006.39 1006.14 1005.88 1005.61 1005.31 1005.00 1004.66 1004.29 1003.90 1003.49 1003.06 1002.63 1002.21 1001.82 1001.46 1001.16 1000.92 1000.75 1000.65 1000.62 1000.66 1000.76 1000.90 1001.07
1010.09 1010.05 1009.99 1009.90 1009.79 1009.65 1009.49 1009.31 1009.10 1008.88 1008.63 1008.37 1008.10 1007.83 1007.55 1007.28 1007.02 1006.77 1006.53 1006.31 1006.09 1005.87 1005.65 1005.41 1005.15 1004.87 1004.56 1004.22 1003.84 1003.44 1003.02 1002.59 1002.18 1001.79 1001.43 1001.14 1000.91 1000.76 1000.68 1000.69 1000.76 1000.89 1001.06 1001.27
1009.78 1009.77 1009.73 1009.67 1009.58 1009.47 1009.33 1009.16 1008.95 1008.72 1008.46 1008.19 1007.90 1007.60 1007.31 1007.02 1006.76 1006.51 1006.28 1006.07 1005.88 1005.70 1005.52 1005.33 1005.12 1004.88 1004.62 1004.31 1003.97 1003.60 1003.21 1002.81 1002.41 1002.04 1001.70 1001.42 1001.21 1001.08 1001.02 1001.04 1001.13 1001.28 1001.48 1001.71
Thickness
5773 5773 5769 5768 5779 5787 5784 5782 5773 5771 5771 5779 5786 5787 5789 5787 5782 5776 5770 5764 5758 5750 5744 5739 5733 5728 5724 5719 5714 5709 5703 5697 5693 5689 5684 5679 5674 5670 5665 5660 5655 5650 5645 5639
5772 5781 5781 5780 5787 5793 5792 5791 5790 5786 5782 5796 5797 5795 5790 5786 5781 5774 5768 5764 5758 5751 5744 5737 5732 5727 5722 5717 5712 5707 5700 5696 5692 5686 5681 5676 5671 5667 5662 5656 5651 5646 5640 5634
5760 5776 5776 5768 5789 5792 5791 5798 5795 5783 5787 5796 5790 5788 5785 5783 5780 5774 5769 5764 5758 5751 5744 5737 5732 5727 5720 5715 5710 5704 5698 5694 5689 5684 5678 5673 5669 5663 5657 5651 5646 5640 5635 5629
5758 5758 5740 5776 5807 5805 5796 5798 5802 5798 5796 5795 5792 5791 5791 5788 5780 5774 5770 5765 5759 5752 5745 5739 5733 5726 5720 5714 5708 5702 5696 5692 5687 5681 5676 5670 5664 5658 5652 5647 5641 5635 5630 5624
5753 5746 5755 5777 5791 5791 5783 5783 5799 5795 5794 5794 5794 5788 5783 5787 5782 5775 5770 5765 5759 5753 5746 5738 5731 5725 5717 5711 5706 5700 5695 5690 5685 5679 5672 5666 5660 5654 5648 5642 5636 5631 5625 5620
5753 5742 5737 5759 5781 5793 5782 5766 5791 5792 5787 5786 5783 5765 5767 5779 5777 5773 5768 5762 5756 5751 5745 5735 5729 5722 5713 5707 5702 5697 5693 5688 5682 5676 5669 5662 5656 5650 5644 5638 5631 5626 5622 5616
5748 5743 5751 5769 5782 5780 5748 5752 5782 5787 5784 5781 5774 5770 5773 5777 5773 5768 5763 5757 5752 5746 5739 5732 5726 5718 5709 5704 5699 5695 5691 5685 5678 5672 5666 5659 5654 5647 5641 5634 5628 5622 5617 5612
5741 5733 5734 5765 5770 5753 5750 5772 5780 5781 5782 5778 5776 5775 5774 5771 5766 5762 5757 5752 5747 5739 5732 5727 5722 5713 5705 5700 5697 5692 5686 5679 5673 5668 5662 5658 5650 5643 5636 5630 5624 5618 5613 5608
5741 5737 5748 5756 5755 5760 5765 5768 5774 5778 5779 5777 5772 5769 5768 5763 5760 5756 5751 5746 5741 5734 5726 5721 5716 5709 5701 5697 5693 5687 5680 5674 5668 5663 5657 5652 5645 5638 5632 5626 5620 5615 5610 5605
5737 5738 5745 5751 5754 5759 5768 5769 5773 5774 5774 5772 5765 5764 5761 5756 5752 5749 5745 5740 5735 5728 5720 5714 5710 5704 5698 5694 5689 5682 5674 5668 5663 5657 5652 5647 5641 5635 5628 5622 5616 5611 5605 5600
5736 5736 5741 5744 5750 5756 5760 5764 5765 5766 5765 5762 5759 5756 5752 5747 5744 5740 5737 5733 5728 5722 5715 5710 5705 5699 5694 5689 5682 5675 5668 5663 5657 5653 5649 5643 5638 5632 5626 5621 5614 5606 5601 5596
5727 5734 5735 5734 5745 5750 5749 5749 5752 5752 5751 5752 5750 5745 5742 5738 5735 5732 5728 5724 5719 5713 5709 5704 5698 5692 5687 5682 5676 5668 5661 5656 5651 5648 5644 5640 5634 5629 5625 5618 5613 5605 5599 5592
5737 5740 5738 5739 5741 5744 5743 5743 5743 5742 5739 5738 5738 5736 5732 5727 5723 5721 5718 5714 5709 5704 5700 5695 5690 5684 5680 5676 5669 5662 5655 5650 5645 5642 5638 5633 5628 5623 5619 5615 5610 5603 5597 5590
5734 5732 5728 5729 5731 5734 5735 5734 5733 5731 5729 5727 5725 5723 5720 5716 5712 5709 5705 5702 5699 5696 5691 5686 5680 5675 5672 5668 5662 5655 5649 5645 5639 5635 5631 5627 5623 5618 5614 5609 5605 5602 5597 5588
5725 5725 5721 5721 5721 5721 5722 5721 5717 5714 5713 5712 5711 5708 5705 5702 5699 5696 5695 5693 5688 5683 5678 5674 5669 5665 5663 5658 5652 5646 5641 5638 5634 5630 5626 5622 5618 5613 5609 5605 5601 5598 5595 5589
5715 5714 5711 5707 5704 5705 5705 5702 5699 5697 5697 5696 5694 5692 5691 5689 5686 5684 5682 5679 5673 5669 5665 5662 5658 5655 5652 5648 5643 5638 5634 5631 5626 5622 5619 5615 5611 5607 5604 5600 5596 5592 5588 5585
5699 5694 5691 5689 5688 5688 5687 5686 5684 5682 5682 5680 5679 5678 5676 5673 5670 5668 5666 5665 5662 5658 5655 5651 5647 5644 5642 5638 5633 5629 5627 5625 5620 5615 5612 5608 5604 5600 5597 5593 5589 5586 5584 5582
5689 5685 5681 5677 5675 5672 5671 5671 5670 5668 5666 5666 5665 5663 5660 5657 5654 5652 5652 5651 5649 5646 5643 5640 5636 5633 5630 5627 5622 5618 5616 5614 5612 5609 5605 5601 5597 5593 5590 5586 5583 5581 5580 5578
5675 5671 5668 5666 5664 5661 5659 5657 5656 5654 5653 5652 5649 5646 5645 5643 5641 5640 5639 5636 5634 5632 5629 5627 5622 5619 5617 5615 5609 5606 5604 5602 5601 5599 5596 5593 5589 5586 5583 5581 5578 5575 5574 5573
5659 5657 5654 5652 5651 5648 5645 5644 5643 5641 5640 5638 5636 5633 5631 5629 5628 5627 5625 5622 5621 5618 5616 5613 5609 5607 5605 5601 5595 5595 5593 5592 5591 5589 5587 5585 5582 5579 5576 5574 5572 5569 5567 5566
5643 5642 5640 5638 5636 5635 5633 5631 5629 5627 5627 5625 5622 5619 5617 5616 5615 5613 5610 5608 5607 5604 5601 5598 5596 5593 5590 5584 5581 5583 5582 5581 5580 5578 5576 5574 5572 5569 5567 5564 5563 5562 5560 5560
5630 5628 5626 5625 5623 5621 5620 5619 5618 5616 5614 5612 5610 5607 5605 5603 5602 5600 5598 5595 5594 5587 5586 5585 5582 5576 5572 5568 5570 5569 5569 5568 5567 5566 5564 5562 5561 5559 5557 5556 5556 5555 5554 5554
5618 5615 5613 5611 5610 5608 5608 5607 5606 5604 5601 5599 5596 5594 5592 5590 5588 5586 5583 5583 5581 5574 5571 5569 5563 5559 5555 5557 5557 5556 5555 5555 5554 5553 5552 5550 5550 5549 5549 5549 5549 5549 5548 5548
5604 5602 5601 5600 5599 5596 5594 5596 5594 5592 5590 5588 5587 5585 5582 5579 5578 5577 5574 5569 5565 5560 5558 5553 5548 5545 5542 5544 5543 5542 5541 5540 5539 5539 5539 5539 5539 5541 5541 5541 5541 5541 5542 5543
5592 5590 5589 5587 5585 5585 5585 5584 5583 5581 5580 5578 5576 5574 5571 5568 5564 5562 5559 5556 5551 5547 5546 5543 5537 5533 5531 5531 5530 5529 5527 5526 5525 5525 5526 5528 5529 5529 5531 5532 5533 5534 5535 5536
5582 5580 5579 5577 5575 5573 5574 5573 5572 5570 5568 5565 5563 5560 5557 5554 5551 5548 5546 5544 5540 5535 5533 5531 5528 5523 5522 5520 5518 5516 5514 5513 5513 5513 5514 5516 5518 5520 5522 5524 5526 5527 5528 5529
5572 5571 5569 5568 5568 5567 5565 5563 5560 5557 5555 5552 5548 5546 5543 5541 5538 5536 5533 5531 5528 5525 5521 5518 5516 5513 5510 5508 5506 5503 5502 5502 5502 5502 5503 5506 5508 5510 5512 5515 5518 5520 5521 5522